Hourly Data Report for July 21, 2021

KUGLUKTUK A
NUNAVUT
Current Station Operator: NAVCAN

67°49'00.000" N
115°08'38.000" W
22.60 m
2300903
71938
YCO

Download Data

Hourly Data (July 2021)
Hourly Data Report for July 21, 2021
TIME
LST
Temp Definition
°C
Dew Point Definition
°C
Rel Hum Definition
%
Precip. Amount Definition
mm

Wind Dir Definition
10's deg

Wind Spd Definition
km/h
Visibility Definition
km
Stn Press Definition
kPa
Hmdx Definition


Wind Chill Definition


Weather Definition


00:00 12.7 9.3 80   19 16 24.1 101.09     LegendNANA
01:00 13.1 8.3 73   20 19 24.1 101.08     LegendNANA
02:00 12.7 7.6 71   20 19 24.1 101.05     Clear
03:00 13.4 7.7 68   20 23 24.1 101.01     LegendNANA
04:00 13.6 8.9 73   20 20 24.1 100.98     LegendNANA
05:00 14.3 10.0 75   28 9 16.1 100.95     Clear
06:00 14.3 10.2 76   26 4 19.3 100.90     LegendNANA
07:00 17.9 12.0 68   23 8 24.1 100.86     LegendNANA
08:00 19.1 11.9 62   23 9 24.1 100.81     Mainly Clear
09:00 21.1 12.1 56   18 11 24.1 100.75     LegendNANA
10:00 22.9 12.2 50   22 18 24.1 100.69 25   LegendNANA
11:00 24.1 12.8 49   20 21 24.1 100.62 27   Mainly Clear
12:00 26.1 12.9 43   23 16 24.1 100.55 29   LegendNANA
13:00 26.8 11.8 39   21 25 24.1 100.49 29   LegendNANA
14:00 27.1 9.5 32   23 29 24.1 100.42 28   Mainly Clear
15:00 27.3 9.9 33   22 23 24.1 100.38 29   LegendNANA
16:00 27.6 9.8 32   24 26 24.1 100.34 29   LegendNANA
17:00 26.1 10.8 38   21 16 24.1 100.28 28   Mostly Cloudy
18:00 26.5 11.0 37   23 17 24.1 100.22 28   LegendNANA
19:00 23.6 12.2 48   23 10 6.4 100.19 26   Smoke
20:00 22.9 12.5 52   22 10 4.8 100.15 25   Smoke
21:00 19.2 12.3 64   20 12 4.8 100.11     Smoke
22:00 17.8 11.5 66   20 13 4.8 100.10     Smoke
23:00 16.8 10.7 67   21 20 6.4 100.07     Smoke

Notes on Data Quality.

Legend

  • E = Estimated
  • M = Missing
  • NA = Not Available*
  • [empty] = Indicates an unobserved value
Date modified: